sat.trackr.live / text

‹ back to catalog

STARLINK-4129

NORAD 53251 · 2022-086K

PAYLOAD ACTIVE UNKNOWN

§ Identity

Operator
Country
US
Launch date
2022-07-24
Launch site
AFETR
Launch vehicle
Mass (kg)
RCS (m²)

Purposes: comms

External: N2YO · Heavens-Above · Gunter

§ Orbital elements

Epoch: 2026-09-19T23:18:15.314112Z

Period
93.85 min
Inclination
53.1618°
Eccentricity
0.0001081
Mean motion
15.34392782 rev/d
Perigee alt
462.0 km
Apogee alt
463.5 km
Semi-major
6,840.9 km
B*
2.9189e-5
RAAN
27.8484°
Arg perigee
46.2825°
Mean anomaly
313.8266°
Rev number
23,058

§ Raw data

STARLINK-41291 53251U 22086K   26262.97101058  .00000610  00000+0  29189-4 0  99922 53251  53.1618  27.8484 0001081  46.2825 313.8266 15.34392782230583

JSON: /api/v1/satellites/53251 · /tle

For live sub-satellite position, see the globe view (requires WebGL).

§ Visibility from observer

Set your observer location to see the next 7 days of passes ≥ 10°. The values pass through the URL so the page stays shareable.

No JS? Fill the form by hand. The geolocation button needs JavaScript.